User: anonymous   Login
Location: Oshawa
(43.9000°N, 78.8670°W)
Time: 08:14:55
(UTC-04:00)
Language:

Thor Agena Rocket - Orbit

View from above orbital plane
View from above orbital plane
View from above satellite
View from above satellite

Ground track
Ground track

The orbit data is extracted from the following two-line orbital elements,

1 00733U 64002A   16269.11698279  .00000046  00000-0  35059-4 0  9998
2 00733  99.1118  74.9715 0033222 227.2328 132.6058 14.32232775744360
Epoch (UTC): 25 September 2016 02:48:27
Eccentricity: 0.0033222
inclination: 99.1118°
perigee height: 760 km
apogee height: 808 km
right ascension of ascending node: 74.9715°
argument of perigee: 227.2328°
revolutions per day: 14.32232775
mean anomaly at epoch: 132.6058°
orbit number at epoch: 74436

The dashed part of the orbit path shows where the satellite is in the earth's shadow,  

DLR